JILIN-1 07 (43159 NORAD) Tracking and Keplerian Element Data

This shows tracking and keplerian element data for the satellite.

Feedback or suggestion? Click here.




ElementValue
Catalog43159
NameJILIN-1 07
Epoch Orbit38885
Epoch Day35.18826164
Epoch Year2025
RAAN65.5123
Inclination97.2223
Eccentricity0.0011378
Argument of Perigee43.5212
Mean Anonmoly316.6922
Mean Motion15.24946115
Decay Rate0.00010809
L11 43159U 18008E 25035.18826164 .00010809 00000+0 43564-3 0 9992
L22 43159 97.2223 65.5123 0011378 43.5212 316.6922 15.24946115388857



Live tracking and technical data element details for JILIN-1 07 (NORAD 43159). JILIN-1 07 can be tracked NOW for your location showing map with azimuth and elevation plus other details from your city location.







IsCatalogInMostPopularTable: catalog: 43159, numindb: 392
Update: records affected: 1



GetName: 43159 JILIN-1 07

Hit Count: updated at: Fri, 16 May 2025 11:06:12 GMT